Regional Weather Roundup
Issued by NWS

Home | Current Version | Previous Version | Text Only | Print | Product List | Glossary Off
Versions: 1 2 3 4 5 6 7 8 9 10 11 12 13 14 15 16 17 18 19 20 21 22 23 24 25 26 27 28 29 30 31 32 33 34 35 36 37 38 39 40 41 42 43 44 45 46 47 48 49 50

000
ASUS44 KMEG 212100
RWRTN
TENNESSEE HOURLY STATE WEATHER ROUNDUP
NATIONAL WEATHER SERVICE MEMPHIS TN
400 PM CDT MON JUL 21 2014

TNZ002-004-019-021-049-052-054-088>092-212200-
WEST TENNESSEE

CITY           SKY/WX    TMP DP  RH WIND       PRES   REMARKS
MEMPHIS INTL   MOSUNNY   86  66  51 N6        30.04F
NWS MEMPHIS      N/A     87 N/A N/A MISG        N/A
JACKSON        PTSUNNY   87  67  51 VRB5      30.04F HX  90
DYERSBURG      PTSUNNY   82  61  47 NW5       30.05F
PARIS          PTSUNNY   82  64  54 NE3       30.06S
$$

TNZ008-025-027-028-033-062-065-066-212200-
NORTH MIDDLE TENNESSEE

CITY           SKY/WX    TMP DP  RH WIND       PRES   REMARKS
NASHVILLE      PTSUNNY   91  65  41 E9        30.05R HX  93
CLARKSVILLE    MOSUNNY   91  62  37 MISG      30.03S HX  91
COOKEVILLE     MOSUNNY   88  73  62 S5        30.07S HX  96
CROSSVILLE     MOSUNNY   80  66  62 CALM      30.13R
$$

TNZ061-075-076-078-094-096-097-212200-
SOUTH MIDDLE TENNESSEE

CITY           SKY/WX    TMP DP  RH WIND       PRES   REMARKS
FAYETTEVILLE   MOSUNNY   81  68  65 NE12      30.06F
WINCHESTER     MOSUNNY   82  72  69 VRB5      30.07S
COLUMBIA       MOSUNNY   88  70  55 CALM      30.04S HX  92
SHELBYVILLE    PTSUNNY   81  73  78 VRB3      30.07F
$$

TNZ017-018-042-046-047-212200-
NORTHEAST TENNESSEE

CITY           SKY/WX    TMP DP  RH WIND       PRES   REMARKS
TRI CITIES     CLOUDY    80  66  62 VRB7      30.11S
ELIZABETHTON   CLEAR     79  66  65 SE6       30.13S
$$

TNZ012-013-036-069-073-074-212200-
CENTRAL EAST TENNESSEE

CITY           SKY/WX    TMP DP  RH WIND       PRES   REMARKS
KNOXVILLE      PTSUNNY   86  68  54 VRB3      30.05F
OAK RIDGE      SUNNY     87  68  52 CALM      30.07F HX  90
GATLINBURG     MOCLDY    84  66  54 VRB3      30.06S
$$

TNZ083-085-099-212200-
SOUTHEAST TENNESSEE

CITY           SKY/WX    TMP DP  RH WIND       PRES   REMARKS
CHATTANOOGA    PTSUNNY   82  69  64 SE8       30.05F
$$

SKY/WX REPORTED AS FAIR MEANS FEW OR NO CLOUDS BELOW
12 THOUSAND FEET.




USA.gov is the U.S. government's official web portal to all federal, state and local government web resources and services.